Hourly Data Report for July 07, 2006

TORONTO CITY
ONTARIO

43°40'00.000" N
79°24'00.000" W
112.50 m
6158355
71508
XTO

Download Data

Hourly Data (July 2006)
Hourly Data Report for July 7, 2006
TIME
LST
Temp Definition
°C
Dew Point Definition
°C
Rel Hum Definition
%
Precip. Amount Definition
mm

Wind Dir Definition
10's deg

Wind Spd Definition
km/h
Visibility Definition
km
Stn Press Definition
kPa
Hmdx Definition


Wind Chill Definition


Weather Definition


00:00 18.4 12.2 67   LegendMM LegendMM   100.99     LegendNANA
01:00 16.5 12.2 76   LegendMM LegendMM   101.00     LegendNANA
02:00 15.8 12.1 79   LegendMM LegendMM   101.01     LegendNANA
03:00 15.2 11.9 81   LegendMM LegendMM   101.02     LegendNANA
04:00 14.6 11.7 83   LegendMM LegendMM   101.05     LegendNANA
05:00 14.7 11.4 81   LegendMM LegendMM   101.08     LegendNANA
06:00 15.7 12.0 79   LegendMM LegendMM   101.11     LegendNANA
07:00 17.7 11.7 68   LegendMM LegendMM   101.14     LegendNANA
08:00 20.0 12.4 62   LegendMM LegendMM   101.18     LegendNANA
09:00 22.1 12.6 55   LegendMM LegendMM   101.21 25   LegendNANA
10:00 24.1 13.3 51   LegendMM LegendMM   101.19 27   LegendNANA
11:00 24.5 13.5 50   LegendMM LegendMM   101.16 28   LegendNANA
12:00 25.1 14.6 52   LegendMM LegendMM   101.15 29   LegendNANA
13:00 25.2 13.0 47   LegendMM LegendMM   101.10 28   LegendNANA
14:00 26.1 12.7 43   LegendMM LegendMM   101.05 29   LegendNANA
15:00 26.2 11.9 41   LegendMM LegendMM   101.00 28   LegendNANA
16:00 26.6 14.3 47   LegendMM LegendMM   100.97 30   LegendNANA
17:00 25.9 13.1 45   LegendMM LegendMM   100.94 29   LegendNANA
18:00 24.8 14.7 53   LegendMM LegendMM   100.94 29   LegendNANA
19:00 22.8 14.9 61   LegendMM LegendMM   100.96 27   LegendNANA
20:00 21.4 14.1 63   LegendMM LegendMM   100.96 25   LegendNANA
21:00 21.0 13.9 64   LegendMM LegendMM   100.99     LegendNANA
22:00 20.6 14.3 67   LegendMM LegendMM   101.01     LegendNANA
23:00 21.0 14.8 68   LegendMM LegendMM   101.00 25   LegendNANA

Notes on Data Quality.

Legend

  • E = Estimated
  • M = Missing
  • NA = Not Available*
  • [empty] = Indicates an unobserved value
Date modified: